This is the latest recevied weather packets stored in our database for station/object KC1TEM-13. If no packets are shown the sender has not sent any weather packets the latest 10 day(s).
| Time | Temp. | Humidity | Pressure | Rain* | Wind** | Luminosity | Snow |
|---|---|---|---|---|---|---|---|
| 1778075893 | 20° C | 64% | 1009 hPa | 0 mm | - | 520 W/m² | - |
| 1778075589 | 19.44° C | 65% | 1009.2 hPa | 0 mm | - | 306 W/m² | - |
| 1778075286 | 19.44° C | 65% | 1009.3 hPa | 0 mm | - | 291 W/m² | - |
| 1778074982 | 19.44° C | 65% | 1009.3 hPa | 0 mm | - | 190 W/m² | - |
| 1778074679 | 19.44° C | 66% | 1009.6 hPa | 0 mm | - | 266 W/m² | - |
| 1778074376 | 18.89° C | 66% | 1009.5 hPa | 0 mm | - | 231 W/m² | - |
| 1778074073 | 19.44° C | 66% | 1009.7 hPa | 0 mm | - | 168 W/m² | - |
| 1778073770 | 18.89° C | 66% | 1009.5 hPa | 0 mm | - | 187 W/m² | - |
| 1778073468 | 18.89° C | 67% | 1009.5 hPa | 0 mm | - | 193 W/m² | - |
| 1778073163 | 18.89° C | 67% | 1009.3 hPa | 0 mm | - | 162 W/m² | - |
| 1778072860 | 18.89° C | 67% | 1009.5 hPa | 0 mm | - | 128 W/m² | - |
| 1778072557 | 18.89° C | 67% | 1009.5 hPa | 0 mm | - | 145 W/m² | - |
| 1778072256 | 18.89° C | 67% | 1009.7 hPa | 0 mm | - | 151 W/m² | - |
| 1778071953 | 18.89° C | 67% | 1009.5 hPa | 0 mm | - | 158 W/m² | - |
| 1778071651 | 18.89° C | 67% | 1009.4 hPa | 0 mm | - | 204 W/m² | - |
| 1778071349 | 18.89° C | 67% | 1009.4 hPa | 0 mm | - | 153 W/m² | - |
| 1778071046 | 18.89° C | 67% | 1009.6 hPa | 0 mm | - | 160 W/m² | - |
| 1778070745 | 18.89° C | 67% | 1009.7 hPa | 0 mm | - | 144 W/m² | - |
| 1778070441 | 18.89° C | 66% | 1009.6 hPa | 0 mm | - | 102 W/m² | - |
| 1778070138 | 19.44° C | 65% | 1009.8 hPa | 0 mm | - | 169 W/m² | - |
| 1778069836 | 18.89° C | 68% | 1009.7 hPa | 0 mm | - | 352 W/m² | - |
| 1778069532 | 17.78° C | 69% | 1009.6 hPa | 0 mm | - | 354 W/m² | - |
| 1778069230 | 17.78° C | 70% | 1009.8 hPa | 0 mm | - | 122 W/m² | - |
| 1778068928 | 17.78° C | 70% | 1009.8 hPa | 0 mm | - | 94 W/m² | - |
| 1778068626 | 17.78° C | 70% | 1009.9 hPa | 0 mm | - | 99 W/m² | - |
* Rain latest hour (hover to see other rain measurements)
** Current wind speed in m/s (hover to see current wind gust speed)